Buffalo, WY

3:33 PM MDT on October 21, 2017 (GMT -0600)
Johnson County

Weather History for KBYG - January, 2014

Change the Weather History Date:

Thursday, January 23, 2014

  Actual Average Record
Temperature  
Mean Temperature 22 °F 28 °F  
Max Temperature 37 °F 38 °F 63 °F (2005)
Min Temperature 7 °F 17 °F 1 °F (2009)
Degree Days  
Heating Degree Days 43 37  
Month to date heating degree days 831 857  
Since 1 July heating degree days 3629 3904  
Cooling Degree Days 0 0  
Month to date cooling degree days 0 0  
Year to date cooling degree days 0 0  
Moisture  
Dew Point 8 °F    
Average Humidity 60    
Maximum Humidity 96    
Minimum Humidity 24    
Precipitation  
Precipitation T in 0.01 in 0.04 in (2011)
Month to date precipitation 0.15 0.29  
Year to date precipitation 0.15 0.29  
Sea Level Pressure  
Sea Level Pressure 30.43 in    
Wind  
Wind Speed 6 mph (South)    
Max Wind Speed 16 mph    
Max Gust Speed 20 mph    
Visibility 10 miles    
Events      
T = Trace of Precipitation, MM = Missing Value Source: NWS Daily Summary

Daily Weather History Graph

Daily Weather History Graph

Search for Another Location

Airport or City:

Trip Planner

Search our weather history database for the weather conditions in past years. The results will help you decide how hot, cold, wet, or windy it might be!

Date:

Astronomy

Jan. 23, 2014 Rise Set
Actual Time 7:33 AM MST 5:04 PM MST
Civil Twilight 7:02 AM MST 5:35 PM MST
Nautical Twilight 6:26 AM MST 6:11 PM MST
Astronomical Twilight 5:52 AM MST 6:45 PM MST
Moon No Moon Rise 10:52 AM MST (1/23)
Length of Visible Light 10h 33m
Length of Day
9h 30m
Waning Gibbous, 54% of the Moon is Illuminated
Jan 23
Waning Gibbous
Jan 23
Last Quarter
Jan 30
New
Feb 6
First Quarter
Feb 14
Full

Hourly Weather History & Observations

Time (MST) Temp. Windchill Dew Point Humidity Pressure Visibility Wind Dir Wind Speed Gust Speed Precip Events Conditions
12:53 AM 14.0 °F 8.2 °F 12.0 °F 92% 30.52 in 10.0 mi ENE 3.5 mph - N/A   Overcast
1:28 AM 14.0 °F - 10.0 °F 84% 30.35 in 10.0 mi Calm Calm - N/A   Overcast
1:40 AM 14.0 °F - 12.0 °F 92% 30.35 in 10.0 mi Calm Calm - N/A   Overcast
1:53 AM 14.0 °F - 12.0 °F 92% 30.52 in 10.0 mi Calm Calm - N/A   Overcast
2:45 AM 15.1 °F 7.7 °F 12.0 °F 88% 30.37 in 10.0 mi NNE 4.6 mph - N/A   Overcast
2:53 AM 15.1 °F 7.7 °F 12.0 °F 88% 30.54 in 10.0 mi North 4.6 mph - N/A   Overcast
3:53 AM 15.1 °F 7.7 °F 10.9 °F 84% 30.54 in 9.0 mi WNW 4.6 mph - N/A   Overcast
4:53 AM 15.1 °F 7.7 °F 10.9 °F 84% 30.55 in 8.0 mi NE 4.6 mph - 0.00 in   Overcast
5:17 AM 15.1 °F 9.4 °F 10.9 °F 84% 30.40 in 10.0 mi NE 3.5 mph - N/A   Overcast
5:53 AM 14.0 °F - 10.0 °F 84% 30.57 in 10.0 mi Calm Calm - N/A   Overcast
6:53 AM 12.0 °F -1.3 °F 7.0 °F 80% 30.58 in 10.0 mi South 10.4 mph - N/A   Mostly Cloudy
7:00 AM 12.0 °F -1.3 °F 7.0 °F 80% 30.39 in 10.0 mi South 10.4 mph - N/A   Scattered Clouds
7:18 AM 12.0 °F -2.7 °F 7.0 °F 80% 30.39 in 10.0 mi South 12.7 mph - N/A   Partly Cloudy
7:53 AM 8.1 °F -3.2 °F 1.9 °F 76% 30.59 in 10.0 mi SSW 6.9 mph - N/A   Clear
8:53 AM 14.0 °F 8.2 °F 6.1 °F 71% 30.57 in 10.0 mi SSE 3.5 mph - N/A   Clear
9:53 AM 21.0 °F 14.6 °F 10.0 °F 63% 30.54 in 10.0 mi SSE 4.6 mph - N/A   Clear
10:53 AM 26.1 °F 17.6 °F 9.0 °F 49% 30.53 in 10.0 mi South 8.1 mph - N/A   Clear
11:53 AM 32.0 °F 22.5 °F 6.1 °F 34% 30.48 in 10.0 mi South 12.7 mph - N/A   Clear
12:53 PM 33.1 °F 22.6 °F 3.9 °F 29% 30.45 in 10.0 mi South 16.1 mph - N/A   Clear
1:53 PM 33.1 °F 23.9 °F -0.0 °F 24% 30.42 in 10.0 mi South 12.7 mph - N/A   Clear
2:53 PM 32.0 °F 22.5 °F 3.9 °F 31% 30.40 in 10.0 mi South 12.7 mph - N/A   Clear
3:53 PM 30.9 °F 27.5 °F 12.9 °F 47% 30.39 in 10.0 mi SSE 3.5 mph - N/A   Clear
4:53 PM 26.1 °F 19.4 °F 10.9 °F 53% 30.38 in 10.0 mi SSW 5.8 mph - N/A   Clear
5:53 PM 21.9 °F 13.4 °F 10.0 °F 60% 30.38 in 10.0 mi WSW 6.9 mph - N/A   Clear
6:53 PM 25.0 °F 16.3 °F 10.0 °F 53% 30.36 in 10.0 mi SW 8.1 mph - N/A   Clear
7:53 PM 28.9 °F 21.1 °F 5.0 °F 36% 30.33 in 10.0 mi SSW 8.1 mph - N/A   Clear
8:53 PM 27.0 °F 19.5 °F 7.0 °F 43% 30.32 in 10.0 mi WSW 6.9 mph - N/A   Clear
9:53 PM 30.9 °F - 3.9 °F 32% 30.27 in 10.0 mi Calm Calm - N/A   Clear
10:53 PM 30.0 °F 26.5 °F 8.1 °F 40% 30.26 in 10.0 mi Variable 3.5 mph - N/A   Clear
11:53 PM 30.9 °F - 5.0 °F 33% 30.25 in 10.0 mi Calm Calm - N/A   Clear